Flag for Switzerland Weather past 2 weeks in Geneva, Geneva, Switzerland

Now
39 °F

Chilly.


Feels Like: 31 °F
Forecast: 32 / 46 °F
Wind: 15 mph from Northeast

Location: Geneve-Cointrin

Current Time: Mar 5, 2015 at 1:38:41 AM

Latest Report: Mar 5, 2015 at 12:00 AM


Visibility: N/A

Pressure: 30.48 "Hg

Humidity: 62%

Dew point: 27 °F

Location of GenevaLocation

Historic Weather in Geneva — Graph

°F

Geneva temperature yesterday

Maximum temperature yesterday: 46 °F (at 1:00 AM)
Minimum temperature yesterday: 37 °F (at 9:00 PM)
Average temperature yesterday: 42 °F

Past Weeks' High & Low Weather Summary

 TemperatureHumidityPressure
High54 °F (Mar 3, 3:00 PM)95% (Feb 21, 1:00 PM)30.69 "Hg (Feb 21, 1:00 PM)
Low27 °F (Feb 20, 5:00 AM)23% (Feb 20, 3:00 PM)29.62 "Hg (Feb 21, 10:00 AM)
Average39 °F74%30.11 "Hg
* Reported Midnight between Feb 17 and Feb 18 — Midnight between Mar 4 and Mar 5, Geneva, Weather by CustomWeather, © 2015

Note: Actual official high and low records may vary slightly from our data, if they occured in-between our weather recording intervals... More about our weather records

Advertising

Geneva weather history for previous 24 hours

 ConditionsComfort  
Time TempWeatherWind HumidityBarometerVisibility
12:00 AM
Thu, Mar 5
39 °FChilly.15 mph62%30.48 "HgN/A
11:00 PM
Wed, Mar 4
39 °FChilly.10 mph56%30.46 "HgN/A
10:00 PM39 °FPassing clouds.12 mph54%30.45 "Hg43 mi
9:00 PM37 °FChilly.9 mph57%30.45 "HgN/A
8:00 PM38 °FChilly.12 mph53%30.44 "HgN/A
7:00 PM38 °FPassing clouds.5 mph67%30.41 "Hg37 mi
6:00 PM41 °FQuite cool.10 mph62%30.37 "HgN/A
5:00 PM42 °FQuite cool.7 mph58%30.36 "HgN/A
4:00 PM43 °FPartly sunny.9 mph49%30.35 "Hg37 mi
3:00 PM45 °FQuite cool.10 mph41%30.34 "HgN/A
2:00 PM44 °FQuite cool.7 mph52%30.36 "HgN/A
1:00 PM44 °FPartly sunny.5 mph53%30.39 "Hg25 mi
12:00 PM42 °FQuite cool.3 mph68%30.39 "HgN/A
11:00 AM40 °FQuite cool.6 mph71%30.39 "HgN/A
10:00 AM40 °FOvercast.6 mph78%30.38 "Hg12 mi
9:00 AM39 °FChilly.3 mph85%30.37 "HgN/A
8:00 AM38 °FChilly.3 mph86%30.35 "HgN/A
7:00 AM39 °FLight rain. Overcast.10 mph89%30.34 "Hg12 mi
6:00 AM41 °FQuite cool.2 mph92%30.31 "HgN/A
5:00 AM43 °FQuite cool.3 mph92%30.29 "HgN/A
3:00 AM44 °FQuite cool.7 mph81%30.27 "HgN/A
2:00 AM46 °FCool.9 mph70%30.28 "HgN/A
1:00 AM46 °FLight rain. Overcast.7 mph64%30.28 "Hg14 mi
Weather by CustomWeather, © 2015

See weather overviewHow to use our weather pages